PIMOHWEATHER Historical Data
 
Daily Summary for December 11, 2019 Units:  Metric    English   Both
« Previous Day
Next Day »
Daily Weekly Monthly Yearly Custom
  Current: High: Low: Average:
Temperature: 24.7 °C 25.8 °C 24.7 °C 25.1 °C
Dew Point: 21.8 °C 22.3 °C 21.8 °C 22 °C
Humidity: 84% 84% 81% 83%
Wind Speed: 2.9km/h 7.6km/h 0.0km/h 2.4km/h
Wind Gust: 4.0km/h 12.2km/h - -
WindNW - - West
Pressure: 1008.7 hPa 1010.0 hPa 1008.4 hPa -
Precipitation: 0.0 mm      
Historical Graphs
 
 
Tabular Data for December 11, 2019
Time Temp. Dew Point Pressure Wind Wind Speed Wind Gust Humidity Rain Rate (Hourly) Solar Radiation Conditions
00:00 25.7 °C 22.2 °C 1009.7 hPa NW 5.0 km/h 7.9 km/h 81% 0.0 mm 0.00 W/m2
00:05 25.7 °C 22.2 °C 1009.4 hPa Calm     81% 0.0 mm 0.00 W/m2
00:10 25.8 °C 22.3 °C 1009.7 hPa Calm     81% 0.0 mm 0.00 W/m2
00:15 25.7 °C 22.2 °C 1009.7 hPa Calm     81% 0.0 mm 0.00 W/m2
00:20 25.6 °C 22.1 °C 1009.7 hPa NW 2.1 km/h 4.0 km/h 81% 0.0 mm 0.00 W/m2
00:25 25.5 °C 22.2 °C 1009.7 hPa NW 3.5 km/h 4.0 km/h 82% 0.0 mm 0.00 W/m2
00:30 25.5 °C 22.2 °C 1010.0 hPa Calm     82% 0.0 mm 0.00 W/m2
00:35 25.4 °C 22.1 °C 1009.7 hPa Calm     82% 0.0 mm 0.00 W/m2
00:40 25.5 °C 22.2 °C 1009.7 hPa Calm     82% 0.0 mm 0.00 W/m2
00:45 25.5 °C 22.2 °C 1009.7 hPa Calm     82% 0.0 mm 0.00 W/m2
00:50 25.6 °C 22.3 °C 1009.4 hPa Calm     82% 0.0 mm 0.00 W/m2
00:55 25.5 °C 22.2 °C 1009.4 hPa NNW 5.5 km/h 7.9 km/h 82% 0.0 mm 0.00 W/m2
01:00 25.3 °C 22.0 °C 1009.4 hPa NNW 4.7 km/h 7.9 km/h 82% 0.0 mm 0.00 W/m2
01:05 25.1 °C 21.8 °C 1009.4 hPa NNE 5.0 km/h 7.9 km/h 82% 0.0 mm 0.00 W/m2
01:10 25.1 °C 22.0 °C 1009.4 hPa North 3.5 km/h 4.0 km/h 83% 0.0 mm 0.00 W/m2
01:15 25.0 °C 21.9 °C 1009.4 hPa North 2.1 km/h 4.0 km/h 83% 0.0 mm 0.00 W/m2
01:20 24.9 °C 22.0 °C 1009.4 hPa North 5.5 km/h 7.9 km/h 84% 0.0 mm 0.00 W/m2
01:25 24.9 °C 22.0 °C 1009.4 hPa NNW 5.0 km/h 7.9 km/h 84% 0.0 mm 0.00 W/m2
01:30 24.8 °C 21.9 °C 1009.4 hPa North 3.5 km/h 4.0 km/h 84% 0.0 mm 0.00 W/m2
01:35 24.8 °C 21.9 °C 1009.4 hPa NNE 2.6 km/h 4.0 km/h 84% 0.0 mm 0.00 W/m2
01:40 24.8 °C 21.9 °C 1009.4 hPa Calm     84% 0.0 mm 0.00 W/m2
01:45 24.8 °C 21.9 °C 1009.4 hPa NE 2.9 km/h 4.0 km/h 84% 0.0 mm 0.00 W/m2
01:50 24.8 °C 21.9 °C 1009.0 hPa Calm     84% 0.0 mm 0.00 W/m2
01:55 24.8 °C 21.9 °C 1009.0 hPa NNW 1.4 km/h 4.0 km/h 84% 0.0 mm 0.00 W/m2
02:00 24.8 °C 21.9 °C 1009.0 hPa North 2.1 km/h 4.0 km/h 84% 0.0 mm 0.00 W/m2
02:05 24.7 °C 21.8 °C 1008.7 hPa NW 7.6 km/h 12.2 km/h 84% 0.0 mm 0.00 W/m2
02:10 24.8 °C 21.9 °C 1008.7 hPa Calm     84% 0.0 mm 0.00 W/m2
02:15 24.8 °C 21.9 °C 1008.4 hPa NW 6.1 km/h 7.9 km/h 84% 0.0 mm 0.00 W/m2
02:20 24.8 °C 21.9 °C 1008.7 hPa Calm     84% 0.0 mm 0.00 W/m2
02:25 24.8 °C 21.9 °C 1008.7 hPa North 2.9 km/h 4.0 km/h 84% 0.0 mm 0.00 W/m2
02:30 24.7 °C 21.8 °C 1008.7 hPa NW 2.9 km/h 4.0 km/h 84% 0.0 mm 0.00 W/m2
PIMOHWEATHER Philippines
Compliments of Weather Underground - 2 mb